FW7504 Weather Reports


Display with metric or nautical units.
time (UTC)temp
F
wind
direction
speed
MPH
gust
MPH
rain 1hr
in
rain 24hr
in
rain mn
in
humidity
%
barometer
mb
20260905195555 85 0 0.0 2.0 0.00 0.02 0.02 85 1013.4
20260905195054 85 0 0.0 1.0 0.00 0.02 0.02 88 1013.6
20260905194600 85 0 0.0 0.0 0.00 0.02 0.02 86 1013.5
20260905194057 85 0 0.0 0.0 0.00 0.02 0.02 88 1013.5
20260905193553 85 0 0.0 0.0 0.02 0.02 0.02 88 1013.6
20260905193100 85 0 0.0 0.0 0.02 0.02 0.02 89 1013.8
20260905192554 85 0 0.0 0.0 0.02 0.02 0.02 89 1013.8
20260905192054 85 0 0.0 0.0 0.02 0.02 0.02 89 1013.9
20260905191610 85 0 0.0 1.0 0.02 0.02 0.02 87 1013.9
20260905191053 85 0 0.0 2.0 0.02 0.02 0.02 84 1014.0
20260905190553 85 0 0.0 2.0 0.02 0.02 0.02 81 1014.2
20260905190138 86 0 0.0 2.0 0.02 0.02 0.02 78 1014.1
20260905185554 88 0 0.0 3.0 0.02 0.02 0.02 74 1014.4
20260905185054 90 0 1.0 5.0 0.02 0.02 0.02 71 1014.3
20260905184622 92 225 1.0 5.0 0.02 0.02 0.02 67 1014.3
20260905184056 94 360 1.0 5.0 0.02 0.02 0.02 60 1014.3
20260905183554 95 360 1.0 6.0 0.00 0.00 0.00 54 1014.0
20260905183106 95 360 2.0 6.0 0.00 0.00 0.00 53 1013.9
20260905182553 95 360 3.0 6.0 0.00 0.00 0.00 54 1014.1
20260905182056 95 360 1.0 4.0 0.00 0.00 0.00 52 1014.1
20260905181606 95 0 1.0 8.0 0.00 0.00 0.00 52 1014.1
20260905181054 95 360 1.0 8.0 0.00 0.00 0.00 52 1014.3
20260905180554 95 360 3.0 8.0 0.00 0.00 0.00 54 1014.4
20260905180108 95 360 0.0 8.0 0.00 0.00 0.00 53 1014.3
20260905175553 95 360 0.0 9.0 0.00 0.00 0.00 53 1014.3
20260905175054 95 360 4.0 9.0 0.00 0.00 0.00 53 1014.5
20260905174604 95 360 3.0 8.0 0.00 0.00 0.00 53 1014.6
20260905174052 95 360 2.0 6.0 0.00 0.00 0.00 55 1014.7
20260905173556 95 360 3.0 8.0 0.00 0.00 0.00 55 1014.7
20260905173109 94 360 2.0 10.0 0.00 0.00 0.00 54 1014.9
20260905172556 94 360 3.0 10.0 0.00 0.00 0.00 55 1014.9
20260905172053 93 360 0.0 5.0 0.00 0.00 0.00 57 1015.0
20260905171603 93 0 2.0 5.0 0.00 0.00 0.00 57 1014.9
20260905171050 93 360 1.0 5.0 0.00 0.00 0.00 59 1014.9
20260905170553 93 360 2.0 5.0 0.00 0.00 0.00 60 1015.0
20260905170120 92 360 0.0 8.0 0.00 0.00 0.00 62 1015.1
20260905165548 92 360 2.0 8.0 0.00 0.00 0.00 62 1015.0
20260905165055 92 360 0.0 8.0 0.00 0.00 0.00 63 1015.2
20260905164602 92 0 2.0 8.0 0.00 0.00 0.00 63 1015.3
20260905164051 91 360 2.0 8.0 0.00 0.00 0.00 64 1015.4
20260905163551 91 360 1.0 8.0 0.00 0.00 0.00 64 1015.5
20260905163106 91 360 4.0 8.0 0.00 0.00 0.00 65 1015.5
20260905162550 91 360 1.0 5.0 0.00 0.00 0.00 66 1015.4
20260905162051 90 0 1.0 5.0 0.00 0.00 0.00 66 1015.5
20260905161601 90 360 1.0 5.0 0.00 0.00 0.00 67 1015.6
20260905161052 90 0 0.0 4.0 0.00 0.00 0.00 68 1015.6
20260905160551 90 0 0.0 5.0 0.00 0.00 0.00 67 1015.7
20260905160112 90 360 1.0 5.0 0.00 0.00 0.00 67 1015.8
20260905155552 90 360 2.0 5.0 0.00 0.00 0.00 69 1015.8
20260905155054 89 0 0.0 5.0 0.00 0.00 0.00 68 1015.8
20260905154606 89 360 2.0 5.0 0.00 0.00 0.00 69 1016.0
20260905154052 89 0 2.0 5.0 0.00 0.00 0.00 69 1016.1
20260905153552 89 360 1.0 4.0 0.00 0.00 0.00 69 1016.1
20260905153104 89 0 1.0 4.0 0.00 0.00 0.00 69 1015.9
20260905152552 89 0 1.0 4.0 0.00 0.00 0.00 69 1016.1
20260905152051 89 360 1.0 4.0 0.00 0.00 0.00 69 1016.1
20260905151605 88 0 0.0 4.0 0.00 0.00 0.00 70 1016.1
20260905151052 88 360 1.0 4.0 0.00 0.00 0.00 70 1016.1
20260905150551 88 360 0.0 3.0 0.00 0.00 0.00 70 1016.1
20260905150108 87 0 1.0 3.0 0.00 0.00 0.00 70 1016.1
20260905145551 86 0 0.0 3.0 0.00 0.00 0.00 73 1016.2
20260905145051 86 0 0.0 3.0 0.00 0.00 0.00 74 1016.4
20260905144604 85 360 1.0 3.0 0.00 0.00 0.00 75 1016.4
20260905144052 85 0 0.0 1.0 0.00 0.00 0.00 76 1016.3
20260905143552 85 0 0.0 2.0 0.00 0.00 0.00 76 1016.4
20260905143100 85 0 0.0 2.0 0.00 0.00 0.00 76 1016.4
20260905142554 84 0 0.0 2.0 0.00 0.00 0.00 76 1016.4
20260905142053 84 360 0.0 1.0 0.00 0.00 0.00 77 1016.4
20260905141629 85 0 0.0 2.0 0.00 0.00 0.00 77 1016.6
20260905141053 85 0 0.0 2.0 0.00 0.00 0.00 77 1016.5
20260905140555 85 360 0.0 3.0 0.00 0.00 0.00 77 1016.5
20260905140109 84 0 0.0 3.0 0.00 0.00 0.00 78 1016.5
20260905135556 84 360 0.0 3.0 0.00 0.00 0.00 79 1016.5
20260905135055 83 360 1.0 3.0 0.00 0.00 0.00 80 1016.6
20260905134605 82 0 0.0 3.0 0.00 0.00 0.00 81 1016.5
20260905134053 82 0 0.0 3.0 0.00 0.00 0.00 83 1016.5
20260905133553 81 0 1.0 3.0 0.00 0.00 0.00 83 1016.6
20260905133104 80 360 1.0 3.0 0.00 0.00 0.00 84 1016.8
20260905132553 80 0 0.0 2.0 0.00 0.00 0.00 85 1016.8
20260905132053 79 0 1.0 2.0 0.00 0.00 0.00 85 1016.8
20260905131631 79 360 0.0 1.0 0.00 0.00 0.00 87 1016.8
20260905131054 79 0 0.0 0.0 0.00 0.00 0.00 87 1016.8
20260905130554 78 0 0.0 0.0 0.00 0.00 0.00 88 1016.9
20260905130120 78 0 0.0 0.0 0.00 0.00 0.00 88 1016.8
20260905125553 77 0 0.0 0.0 0.00 0.00 0.00 89 1016.8
20260905125053 77 0 0.0 0.0 0.00 0.00 0.00 89 1016.8
20260905124600 77 0 0.0 0.0 0.00 0.00 0.00 90 1016.6
20260905124053 76 0 0.0 0.0 0.00 0.00 0.00 90 1016.8
20260905123553 76 0 0.0 0.0 0.00 0.00 0.00 91 1016.8
20260905123111 76 0 0.0 0.0 0.00 0.00 0.00 91 1016.8
20260905122553 76 0 0.0 0.0 0.00 0.00 0.00 91 1016.7
20260905122052 75 0 0.0 0.0 0.00 0.00 0.00 91 1016.7
20260905121601 75 0 0.0 0.0 0.00 0.00 0.00 91 1016.7
20260905121056 75 0 0.0 0.0 0.00 0.00 0.00 91 1016.7
20260905120554 75 0 0.0 0.0 0.00 0.00 0.00 91 1016.8
20260905120105 75 0 0.0 0.0 0.00 0.00 0.00 91 1016.7
20260905115554 75 0 0.0 0.0 0.00 0.00 0.00 91 1016.5
20260905115053 75 0 0.0 0.0 0.00 0.00 0.00 90 1016.4
20260905114600 75 0 0.0 0.0 0.00 0.00 0.00 90 1016.5
20260905114053 75 0 0.0 0.0 0.00 0.00 0.00 90 1016.2
20260905113553 75 0 0.0 0.0 0.00 0.00 0.00 90 1016.2
20260905113112 75 0 0.0 0.0 0.00 0.00 0.00 90 1016.2
20260905112554 75 0 0.0 0.0 0.00 0.00 0.00 90 1016.1
20260905112056 75 0 0.0 0.0 0.00 0.00 0.00 90 1016.0
20260905111559 75 0 0.0 0.0 0.00 0.00 0.00 90 1015.8
20260905111052 75 0 0.0 0.0 0.00 0.00 0.00 90 1015.8
20260905110551 75 0 0.0 0.0 0.00 0.00 0.00 89 1015.7
20260905110057 75 0 0.0 0.0 0.00 0.00 0.00 90 1015.7
20260905105551 75 0 0.0 0.0 0.00 0.00 0.00 90 1015.6
20260905105051 75 0 0.0 0.0 0.00 0.00 0.00 89 1015.6
20260905104559 75 0 0.0 0.0 0.00 0.00 0.00 90 1015.6
20260905104052 75 0 0.0 0.0 0.00 0.00 0.00 90 1015.5
20260905103551 75 0 0.0 0.0 0.00 0.00 0.00 90 1015.5
20260905103102 75 0 0.0 0.0 0.00 0.00 0.00 90 1015.5
20260905102551 75 0 0.0 0.0 0.00 0.00 0.00 89 1015.5
20260905102051 75 0 0.0 2.0 0.00 0.00 0.00 89 1015.5
20260905101631 75 0 0.0 2.0 0.00 0.00 0.00 89 1015.5
20260905101054 76 360 0.0 1.0 0.00 0.00 0.00 89 1015.5
20260905100551 76 0 0.0 1.0 0.00 0.00 0.00 89 1015.6
20260905095551 76 0 0.0 0.0 0.00 0.00 0.00 89 1015.4
20260905095051 76 0 0.0 0.0 0.00 0.00 0.00 89 1015.5
20260905094603 76 0 0.0 0.0 0.00 0.00 0.00 89 1015.4
20260905094050 76 0 0.0 1.0 0.00 0.00 0.00 89 1015.2
20260905093549 76 0 0.0 1.0 0.00 0.00 0.00 88 1015.2
20260905093102 76 0 0.0 1.0 0.00 0.00 0.00 88 1015.2
20260905092553 76 0 0.0 0.0 0.00 0.00 0.00 88 1015.2
20260905092051 76 0 0.0 0.0 0.00 0.00 0.00 88 1015.2
20260905091629 76 0 0.0 0.0 0.00 0.00 0.00 88 1015.2
20260905091049 76 0 0.0 1.0 0.00 0.00 0.00 88 1015.0
20260905090552 76 0 0.0 2.0 0.00 0.00 0.00 88 1015.2
20260905090100 76 0 0.0 2.0 0.00 0.00 0.00 88 1015.3
20260905085549 76 0 0.0 2.0 0.00 0.00 0.00 88 1015.3
20260905085051 76 0 0.0 2.0 0.00 0.00 0.00 88 1015.3
20260905084616 76 360 0.0 2.0 0.00 0.00 0.00 87 1015.2
20260905084048 76 0 0.0 1.0 0.00 0.00 0.00 88 1015.2
20260905083552 76 0 0.0 1.0 0.00 0.00 0.00 88 1015.2
20260905083054 77 0 0.0 1.0 0.00 0.00 0.00 87 1015.2
20260905082551 77 0 0.0 0.0 0.00 0.00 0.00 87 1015.1
20260905082051 77 0 0.0 0.0 0.00 0.00 0.00 87 1015.2
20260905081602 77 0 0.0 0.0 0.00 0.00 0.00 87 1015.2
20260905081053 77 0 0.0 0.0 0.00 0.00 0.00 86 1015.2
20260905080554 77 0 0.0 0.0 0.00 0.00 0.00 86 1015.0
20260905080106 78 0 0.0 1.0 0.00 0.00 0.00 85 1015.0
20260905075557 78 0 0.0 1.0 0.00 0.00 0.00 85 1014.9
20260905075052 78 0 0.0 0.0 0.00 0.00 0.00 85 1015.0
20260905074600 78 0 0.0 0.0 0.00 0.00 0.00 84 1015.1
20260905074052 78 0 0.0 2.0 0.00 0.00 0.00 85 1015.0
20260905073552 78 0 0.0 2.0 0.00 0.00 0.00 84 1014.9
20260905073104 78 0 1.0 2.0 0.00 0.00 0.00 84 1014.9
20260905072556 78 360 0.0 2.0 0.00 0.00 0.00 84 1015.0
20260905072056 78 0 0.0 0.0 0.00 0.00 0.00 84 1015.0
20260905071603 78 0 0.0 0.0 0.00 0.00 0.00 84 1015.0
20260905071053 79 0 0.0 0.0 0.00 0.00 0.00 84 1015.0
20260905070553 79 0 0.0 0.0 0.00 0.00 0.00 84 1015.0
20260905070118 79 0 0.0 0.0 0.00 0.00 0.00 84 1015.1
20260905065552 79 0 0.0 0.0 0.00 0.00 0.00 84 1015.1
20260905065053 79 0 0.0 0.0 0.00 0.00 0.00 84 1015.3
20260905064601 79 0 0.0 0.0 0.00 0.00 0.00 84 1015.3
20260905064053 79 0 0.0 0.0 0.00 0.00 0.00 84 1015.3
20260905063552 79 0 0.0 0.0 0.00 0.00 0.00 84 1015.3
20260905063102 79 0 0.0 0.0 0.00 0.00 0.00 84 1015.2
20260905062552 79 0 0.0 0.0 0.00 0.00 0.00 84 1015.2
20260905062053 79 0 0.0 0.0 0.00 0.00 0.00 83 1015.2
20260905061618 79 0 0.0 0.0 0.00 0.00 0.00 83 1015.3
20260905061054 79 0 0.0 0.0 0.00 0.00 0.00 83 1015.2
20260905060553 79 0 0.0 0.0 0.00 0.00 0.00 83 1015.2
20260905060109 80 0 0.0 0.0 0.00 0.00 0.00 83 1015.4
20260905055554 80 0 0.0 1.0 0.00 0.00 0.00 82 1015.4
20260905055053 80 0 0.0 1.0 0.00 0.00 0.00 82 1015.4
20260905054603 80 0 0.0 2.0 0.00 0.00 0.00 82 1015.5
20260905054052 80 0 0.0 2.0 0.00 0.00 0.00 82 1015.6
20260905053553 80 0 0.0 0.0 0.00 0.00 0.00 82 1015.4
20260905053114 80 0 0.0 0.0 0.00 0.00 0.00 82 1015.5
20260905052555 80 0 0.0 0.0 0.00 0.00 0.00 82 1015.5
20260905052056 80 0 0.0 0.0 0.00 0.00 0.00 82 1015.4
20260905051559 80 0 0.0 0.0 0.00 0.00 0.00 82 1015.5
20260905051117 80 0 0.0 0.0 0.00 0.00 0.00 82 1015.5
20260905050553 80 0 0.0 0.0 0.00 0.00 0.00 82 1015.4
20260905050108 80 0 0.0 0.0 0.00 0.00 0.00 81 1015.3
20260905045551 80 0 0.0 0.0 0.00 0.00 0.00 81 1015.5
20260905045054 81 0 0.0 1.0 0.00 0.00 0.00 81 1015.5
20260905044603 81 0 0.0 1.0 0.00 0.00 0.00 81 1015.6
20260905044052 81 0 0.0 1.0 0.00 0.00 0.00 80 1015.6
20260905043552 81 0 0.0 1.0 0.00 0.00 0.00 79 1015.7
20260905043106 81 0 0.0 1.0 0.00 0.00 0.00 80 1015.7
20260905042556 81 0 0.0 0.0 0.00 0.00 0.00 79 1015.7
20260905042052 82 0 0.0 0.0 0.00 0.00 0.00 78 1015.7
20260905041603 82 0 0.0 0.0 0.00 0.00 0.00 78 1015.7
20260905041052 82 0 0.0 0.0 0.00 0.00 0.00 77 1015.8
20260905040554 82 0 0.0 0.0 0.00 0.00 0.00 77 1015.7
20260905035553 82 0 0.0 0.0 0.00 0.00 0.00 76 1015.9
20260905035053 82 0 0.0 0.0 0.00 0.00 0.00 75 1016.1
20260905034601 82 0 0.0 1.0 0.00 0.00 0.00 75 1016.1
20260905034054 82 0 0.0 1.0 0.00 0.00 0.00 76 1016.2
20260905033552 83 0 0.0 2.0 0.00 0.00 0.00 75 1016.3
20260905033104 83 0 0.0 3.0 0.00 0.00 0.00 75 1016.4
20260905032552 83 0 1.0 3.0 0.00 0.00 0.00 75 1016.5
20260905032054 83 360 0.0 1.0 0.00 0.00 0.00 74 1016.4
20260905031603 83 0 0.0 1.0 0.00 0.00 0.00 75 1016.4
20260905031054 83 0 0.0 1.0 0.00 0.00 0.00 75 1016.4
20260905030553 84 0 0.0 1.0 0.00 0.00 0.00 74 1016.4
20260905030107 84 0 0.0 1.0 0.00 0.00 0.00 74 1016.4
20260905025552 84 0 0.0 0.0 0.00 0.00 0.00 73 1016.4
20260905025053 84 0 0.0 0.0 0.00 0.00 0.00 72 1016.4
20260905024640 84 0 0.0 0.0 0.00 0.00 0.00 71 1016.5
20260905024057 84 0 0.0 2.0 0.00 0.00 0.00 72 1016.6
20260905023554 84 0 0.0 2.0 0.00 0.00 0.00 72 1016.6
20260905023105 84 0 0.0 2.0 0.00 0.00 0.00 71 1016.5
20260905022552 84 0 0.0 0.0 0.00 0.00 0.00 72 1016.4
20260905022052 84 0 0.0 1.0 0.00 0.00 0.00 73 1016.4
20260905021603 84 0 0.0 1.0 0.00 0.00 0.00 72 1016.5
20260905021052 84 0 0.0 1.0 0.00 0.00 0.00 73 1016.4
20260905020554 85 0 0.0 1.0 0.00 0.00 0.00 73 1016.5
20260905015553 85 0 0.0 1.0 0.00 0.00 0.00 71 1016.4
20260905015055 85 0 0.0 1.0 0.00 0.00 0.00 72 1016.4
20260905014603 85 0 0.0 1.0 0.00 0.00 0.00 72 1016.3
20260905014052 85 0 0.0 0.0 0.00 0.00 0.00 73 1016.3
20260905013553 85 0 0.0 0.0 0.00 0.00 0.00 72 1016.4
20260905013113 85 0 0.0 0.0 0.00 0.00 0.00 72 1016.2
20260905012553 86 0 0.0 0.0 0.00 0.00 0.00 72 1016.3
20260905012054 86 0 0.0 2.0 0.00 0.00 0.00 71 1016.3
20260905011601 86 0 0.0 2.0 0.00 0.00 0.00 71 1016.3
20260905011053 86 0 0.0 2.0 0.00 0.00 0.00 71 1016.1
20260905010553 86 360 0.0 2.0 0.00 0.00 0.00 70 1016.1
20260905010108 86 0 0.0 1.0 0.00 0.00 0.00 70 1016.1
20260905005552 86 0 0.0 1.0 0.00 0.00 0.00 70 1016.2
20260905005053 86 0 0.0 0.0 0.00 0.00 0.00 71 1016.2
20260905004603 87 0 0.0 0.0 0.00 0.00 0.00 72 1016.2
20260905004055 87 0 0.0 0.0 0.00 0.00 0.00 71 1015.8
20260905003552 87 0 0.0 0.0 0.00 0.00 0.00 70 1015.8
20260905003104 88 0 0.0 0.0 0.00 0.00 0.00 69 1015.6
20260905002554 88 0 0.0 0.0 0.00 0.00 0.00 69 1015.6
20260905002054 88 0 0.0 0.0 0.00 0.00 0.00 68 1015.8
20260905001607 88 0 0.0 2.0 0.00 0.00 0.00 68 1015.7
20260905001052 89 0 0.0 2.0 0.00 0.00 0.00 68 1015.8
20260905000553 89 360 0.0 2.0 0.00 0.00 0.00 68 1015.7
20260905000108 89 0 0.0 0.0 0.00 0.00 0.00 67 1015.7
20260904235553 90 0 0.0 0.0 0.00 0.00 0.00 65 1015.7
20260904235052 90 0 0.0 0.0 0.00 0.00 0.00 65 1015.7
20260904234605 90 0 0.0 0.0 0.00 0.00 0.00 64 1015.7
20260904234052 91 0 0.0 1.0 0.00 0.00 0.00 64 1015.7
20260904233552 91 0 0.0 1.0 0.00 0.00 0.00 62 1015.6
20260904233105 92 0 0.0 1.0 0.00 0.00 0.00 62 1015.5
20260904232552 92 0 0.0 2.0 0.00 0.00 0.00 61 1015.4
20260904232052 93 0 0.0 2.0 0.00 0.00 0.00 60 1015.3
20260904231601 93 0 0.0 2.0 0.00 0.00 0.00 59 1015.4
20260904231057 93 0 0.0 2.0 0.00 0.00 0.00 58 1015.3
20260904230550 93 360 0.0 4.0 0.00 0.00 0.00 58 1015.3
20260904230101 93 0 1.0 4.0 0.00 0.00 0.00 58 1015.3
20260904225552 93 0 0.0 2.0 0.00 0.00 0.00 56 1015.3
20260904225052 94 0 0.0 2.0 0.00 0.00 0.00 56 1015.3
20260904224559 94 0 0.0 5.0 0.00 0.00 0.00 55 1015.3
20260904224052 94 0 0.0 5.0 0.00 0.00 0.00 55 1015.2
20260904223552 94 0 1.0 5.0 0.00 0.00 0.00 55 1015.2
20260904223109 94 0 0.0 3.0 0.00 0.00 0.00 54 1015.1
20260904222554 94 360 0.0 3.0 0.00 0.00 0.00 52 1015.2
20260904222053 95 360 1.0 6.0 0.00 0.00 0.00 51 1015.0
20260904221610 95 360 1.0 6.0 0.00 0.00 0.00 51 1015.0
20260904221053 95 360 2.0 6.0 0.00 0.00 0.00 51 1015.0
20260904220552 95 0 2.0 5.0 0.00 0.00 0.00 50 1014.8
20260904220106 95 0 1.0 5.0 0.00 0.00 0.00 50 1014.9
20260904215552 95 0 2.0 5.0 0.00 0.00 0.00 49 1014.7
20260904215053 96 360 2.0 5.0 0.00 0.00 0.00 49 1014.7
20260904214608 96 360 2.0 6.0 0.00 0.00 0.00 49 1014.9
20260904214054 96 360 1.0 9.0 0.00 0.00 0.00 49 1015.0
20260904213552 96 360 4.0 9.0 0.00 0.00 0.00 47 1015.1
20260904213103 97 360 5.0 9.0 0.00 0.00 0.00 48 1015.1
20260904212552 96 360 0.0 3.0 0.00 0.00 0.00 49 1015.1
20260904212053 96 360 1.0 8.0 0.00 0.00 0.00 50 1015.2
20260904211619 96 0 1.0 9.0 0.00 0.00 0.00 50 1015.2
20260904211053 96 0 3.0 9.0 0.00 0.00 0.00 50 1015.3
20260904210555 96 360 3.0 9.0 0.00 0.00 0.00 49 1015.3
20260904205553 95 360 2.0 5.0 0.00 0.00 0.00 49 1015.4
20260904205053 95 360 1.0 9.0 0.00 0.00 0.00 49 1015.4
20260904204602 95 360 3.0 9.0 0.00 0.00 0.00 49 1015.5
20260904204054 95 360 4.0 9.0 0.00 0.00 0.00 49 1015.6
20260904203552 95 360 2.0 9.0 0.00 0.00 0.00 50 1015.6
20260904203103 95 360 3.0 9.0 0.00 0.00 0.00 49 1015.6
20260904202552 95 360 1.0 5.0 0.00 0.00 0.00 51 1015.6
20260904202052 95 360 2.0 5.0 0.00 0.00 0.00 50 1016.0
20260904201604 96 360 0.0 6.0 0.00 0.00 0.00 50 1016.0
20260904201052 96 360 2.0 6.0 0.00 0.00 0.00 51 1016.1
20260904200552 96 360 2.0 13.0 0.00 0.00 0.00 51 1016.0
20260904200106 96 360 6.0 13.0 0.00 0.00 0.00 51 1016.0